Aérodrome :
LOGIN :

S'inscrire | Disclaimer

   EN    FR    IT 

 










Légende :    VFR   VFR Marginal   IFR   IFR Intensif   IFR Très Intensif
Visi : 
Plafond : 
>= 8 km
>= 3000ft
5 à 8 km
1000 à 3000 ft
1500m à 5 km
500 à 1000 ft
800 à 1500m
200 à 500 ft
< 800m
< 200 ft
Symboles :   Orages  Brouillard  Fortes neiges  Fortes précipitations  Vent > 20 kt
SIGMETs :   Divers  Orages  Givrage  Turbulence  Onde Orograph.  Cendres Volcan.







- Altitude de l'aérodrome : 348 ft
- Code IATA : LDV
- Voir les cartes d'approche


LFRJ - Landivisiau

DERNIER METAR :
  • 180730Z AUTO 15009KT 9999 -RA NSC 07/06 Q1015

METARs EXPIRÉS :
  • 180700Z AUTO 18008KT 9999 -RA FEW025 BKN058 OVC074 07/06 Q1015
  • 180630Z AUTO 19010KT 9999 -RA SCT046 BKN058 OVC070 08/06 Q1016
  • 180600Z AUTO 17010KT 9999 -RA SCT047 BKN054 OVC068 08/07 Q1016
  • 180530Z AUTO 19010KT 9000 -RA FEW017 BKN042 BKN049 08/07 Q1016
  • 180500Z AUTO 19009KT 9999 -RA FEW020 BKN056 OVC076 08/07 Q1016

Prévision TAF périmée.
Pas de NOTAMs connus pour ce terrain.



MET'MAP, la Météo Aéronautique d'un coup d'oeil ! - Copyright ORBIFLY Décembre 2007 - Disclaimer

ORBIFLY MET'MAP TEAM :

Programmation & Développement : Alexandra Zaïnal
Conception & Développement : Baudouin d'Aumeries
Co-Programmation & Développement : Marc-Olivier Méhu
Soutien technique & logistique : Manuel Goepfert

Contact : metmap@orbifly.com




SOURCES & CREDITS :

   NOAA